Location: Graswijk
(52.9667°N, 6.5500°E)
Time: 11:04:57
(UTC+00:00)

USA 186 - Pass Details

Date: 15 May 2026
Orbit: 338 x 359 km, 97.0° (Epoch: 19 May)

Event Time Altitude Azimuth Distance (km) Brightness Sun altitude
Exits shadow 21:12:57 - 211° (SSW) 1,665 4.5 -12.1°
Reaches altitude 10° 21:14:10 10° 226° (SW) 1,281 4.1 -12.2°
Maximum altitude 21:15:57 16° 268° (W) 1,008 4.1 -12.4°
Drops below altitude 10° 21:17:46 10° 309° (NW) 1,297 5.5 -12.5°
Sets 21:20:11 0° 332° (NNW) 2,142 7.4 -12.7°
